Time,TemperatureF,DewpointF,PressureIn,WindDirection,WindDirectionDegrees,WindSpeedMPH,WindSpeedGustMPH,Humidity,HourlyPrecipIn,Conditions,Clouds,dailyrainin,SoftwareType,DateUTC
2013-01-25 00:05:00,53.4,52.0,30.16,WSW,252,0.0,-999.0,94,-99.99,,,0.00,weatherlink.com 1.10,2013-01-25 08:05:00,
2013-01-25 00:19:00,53.1,52.0,30.15,WSW,252,0.0,-999.0,94,-99.99,,,0.00,weatherlink.com 1.10,2013-01-25 08:19:00,
2013-01-25 00:34:00,52.6,51.0,30.16,WSW,252,0.0,-999.0,94,-99.99,,,0.00,weatherlink.com 1.10,2013-01-25 08:34:00,
2013-01-25 00:49:00,52.5,51.0,30.16,WSW,252,0.0,-999.0,95,-99.99,,,0.00,weatherlink.com 1.10,2013-01-25 08:49:00,
2013-01-25 01:04:00,52.4,51.0,30.15,WSW,252,0.0,-999.0,95,-99.99,,,0.00,weatherlink.com 1.10,2013-01-25 09:04:00,
2013-01-25 01:19:00,52.3,51.0,30.16,WSW,252,0.0,-999.0,95,-99.99,,,0.00,weatherlink.com 1.10,2013-01-25 09:19:00,
2013-01-25 01:34:00,52.4,51.0,30.16,WSW,252,0.0,-999.0,95,-99.99,,,0.00,weatherlink.com 1.10,2013-01-25 09:34:00,
2013-01-25 01:50:00,52.7,52.0,30.16,WSW,253,0.0,-999.0,96,-99.99,,,0.00,weatherlink.com 1.10,2013-01-25 09:50:00,
2013-01-25 02:04:00,53.0,52.0,30.17,WSW,252,0.0,-999.0,96,-99.99,,,0.00,weatherlink.com 1.10,2013-01-25 10:04:00,
2013-01-25 02:19:00,53.2,52.0,30.17,WSW,252,0.0,-999.0,96,-99.99,,,0.00,weatherlink.com 1.10,2013-01-25 10:19:00,
2013-01-25 02:35:00,53.3,52.0,30.16,WSW,252,0.0,-999.0,96,-99.99,,,0.00,weatherlink.com 1.10,2013-01-25 10:35:00,
2013-01-25 02:49:00,53.2,52.0,30.16,WSW,252,0.0,-999.0,96,-99.99,,,0.00,weatherlink.com 1.10,2013-01-25 10:49:00,
2013-01-25 03:05:00,53.2,52.0,30.15,WSW,252,0.0,-999.0,96,-99.99,,,0.00,weatherlink.com 1.10,2013-01-25 11:05:00,
2013-01-25 03:20:00,53.0,52.0,30.14,WSW,252,0.0,-999.0,96,-99.99,,,0.00,weatherlink.com 1.10,2013-01-25 11:20:00,
2013-01-25 03:35:00,52.7,52.0,30.14,WSW,252,0.0,-999.0,96,-99.99,,,0.00,weatherlink.com 1.10,2013-01-25 11:35:00,
2013-01-25 03:50:00,52.4,51.0,30.13,WSW,252,0.0,-999.0,95,-99.99,,,0.00,weatherlink.com 1.10,2013-01-25 11:50:00,
2013-01-25 04:05:00,52.0,51.0,30.14,WSW,252,0.0,-999.0,96,-99.99,,,0.00,weatherlink.com 1.10,2013-01-25 12:05:00,
2013-01-25 04:20:00,51.6,50.0,30.13,WSW,252,0.0,-999.0,95,-99.99,,,0.00,weatherlink.com 1.10,2013-01-25 12:20:00,
2013-01-25 04:35:00,51.3,50.0,30.14,WSW,252,0.0,-999.0,96,-99.99,,,0.00,weatherlink.com 1.10,2013-01-25 12:35:00,
2013-01-25 04:50:00,51.1,50.0,30.14,WSW,252,0.0,-999.0,96,-99.99,,,0.00,weatherlink.com 1.10,2013-01-25 12:50:00,
2013-01-25 05:05:00,51.2,50.0,30.14,WSW,252,0.0,-999.0,96,-99.99,,,0.00,weatherlink.com 1.10,2013-01-25 13:05:00,
2013-01-25 05:20:00,51.5,51.0,30.14,WSW,252,0.0,-999.0,97,-99.99,,,0.00,weatherlink.com 1.10,2013-01-25 13:20:00,
2013-01-25 05:35:00,51.8,51.0,30.14,WSW,252,0.0,-999.0,97,-99.99,,,0.00,weatherlink.com 1.10,2013-01-25 13:35:00,
2013-01-25 05:50:00,52.1,51.0,30.14,WSW,252,0.0,-999.0,97,-99.99,,,0.00,weatherlink.com 1.10,2013-01-25 13:50:00,
2013-01-25 06:05:00,52.5,52.0,30.14,WSW,252,0.0,-999.0,97,-99.99,,,0.00,weatherlink.com 1.10,2013-01-25 14:05:00,
2013-01-25 06:20:00,52.7,52.0,30.14,WSW,252,0.0,-999.0,97,-99.99,,,0.00,weatherlink.com 1.10,2013-01-25 14:20:00,
2013-01-25 06:35:00,52.8,52.0,30.14,WSW,252,0.0,-999.0,97,-99.99,,,0.00,weatherlink.com 1.10,2013-01-25 14:35:00,
2013-01-25 06:50:00,52.5,52.0,30.14,WSW,252,0.0,-999.0,97,-99.99,,,0.00,weatherlink.com 1.10,2013-01-25 14:50:00,
2013-01-25 07:05:00,52.0,51.0,30.13,WSW,252,0.0,-999.0,96,-99.99,,,0.00,weatherlink.com 1.10,2013-01-25 15:05:00,
2013-01-25 07:20:00,51.4,50.0,30.13,WSW,252,0.0,-999.0,96,-99.99,,,0.00,weatherlink.com 1.10,2013-01-25 15:20:00,
2013-01-25 07:35:00,51.0,50.0,30.13,WSW,252,0.0,-999.0,96,-99.99,,,0.00,weatherlink.com 1.10,2013-01-25 15:35:00,
2013-01-25 07:50:00,50.6,50.0,30.14,WSW,252,0.0,-999.0,96,-99.99,,,0.00,weatherlink.com 1.10,2013-01-25 15:50:00,
2013-01-25 08:05:00,50.4,49.0,30.14,WSW,252,0.0,-999.0,96,-99.99,,,0.00,weatherlink.com 1.10,2013-01-25 16:05:00,
2013-01-25 08:20:00,50.3,49.0,30.14,WSW,253,0.0,-999.0,96,-99.99,,,0.00,weatherlink.com 1.10,2013-01-25 16:20:00,
2013-01-25 08:35:00,51.3,51.0,30.14,WSW,252,0.0,-999.0,97,-99.99,,,0.00,weatherlink.com 1.10,2013-01-25 16:35:00,
2013-01-25 08:50:00,53.4,53.0,30.14,WSW,252,0.0,-999.0,98,-99.99,,,0.00,weatherlink.com 1.10,2013-01-25 16:50:00,
2013-01-25 09:05:00,55.9,55.0,30.14,WSW,251,0.0,-999.0,98,-99.99,,,0.00,weatherlink.com 1.10,2013-01-25 17:05:00,
2013-01-25 09:20:00,58.4,57.0,30.14,SW,233,0.0,-999.0,95,-99.99,,,0.00,weatherlink.com 1.10,2013-01-25 17:20:00,
2013-01-25 09:35:00,60.5,56.0,30.14,WSW,238,0.0,-999.0,86,-99.99,,,0.00,weatherlink.com 1.10,2013-01-25 17:35:00,
2013-01-25 09:50:00,61.7,56.0,30.14,SW,224,2.0,-999.0,81,-99.99,,,0.00,weatherlink.com 1.10,2013-01-25 17:50:00,
2013-01-25 10:05:00,61.4,57.0,30.14,SW,229,1.0,-999.0,84,-99.99,,,0.00,weatherlink.com 1.10,2013-01-25 18:05:00,
2013-01-25 10:20:00,63.1,57.0,30.14,WSW,242,3.0,-999.0,79,-99.99,,,0.00,weatherlink.com 1.10,2013-01-25 18:20:00,
2013-01-25 10:35:00,64.5,57.0,30.14,SW,220,1.0,-999.0,77,-99.99,,,0.00,weatherlink.com 1.10,2013-01-25 18:35:00,
2013-01-25 10:51:00,65.6,58.0,30.13,SW,229,1.0,-999.0,75,-99.99,,,0.00,weatherlink.com 1.10,2013-01-25 18:51:00,
2013-01-25 11:05:00,67.0,57.0,30.13,South,189,3.0,-999.0,71,-99.99,,,0.00,weatherlink.com 1.10,2013-01-25 19:05:00,
2013-01-25 11:20:00,67.4,58.0,30.13,SSW,197,2.0,-999.0,71,-99.99,,,0.00,weatherlink.com 1.10,2013-01-25 19:20:00,
2013-01-25 11:36:00,68.6,58.0,30.12,SSE,159,1.0,-999.0,69,-99.99,,,0.00,weatherlink.com 1.10,2013-01-25 19:36:00,
2013-01-25 11:51:00,69.2,56.0,30.11,NNE,12,2.0,-999.0,64,-99.99,,,0.00,weatherlink.com 1.10,2013-01-25 19:51:00,
2013-01-25 12:06:00,68.9,56.0,30.10,NE,49,0.0,-999.0,63,-99.99,,,0.00,weatherlink.com 1.10,2013-01-25 20:06:00,
2013-01-25 12:21:00,69.0,57.0,30.09,South,170,2.0,-999.0,65,-99.99,,,0.00,weatherlink.com 1.10,2013-01-25 20:21:00,
2013-01-25 12:36:00,69.8,58.0,30.08,SSE,165,1.0,-999.0,66,-99.99,,,0.00,weatherlink.com 1.10,2013-01-25 20:36:00,
2013-01-25 12:51:00,69.7,56.0,30.08,ENE,74,2.0,-999.0,62,-99.99,,,0.00,weatherlink.com 1.10,2013-01-25 20:51:00,
2013-01-25 13:06:00,69.3,57.0,30.07,WSW,245,0.0,-999.0,66,-99.99,,,0.00,weatherlink.com 1.10,2013-01-25 21:06:00,
2013-01-25 13:21:00,70.0,58.0,30.07,SSE,159,0.0,-999.0,65,-99.99,,,0.00,weatherlink.com 1.10,2013-01-25 21:21:00,
2013-01-25 13:35:00,70.1,57.0,30.07,NNE,26,2.0,-999.0,63,-99.99,,,0.00,weatherlink.com 1.10,2013-01-25 21:35:00,
2013-01-25 13:51:00,69.9,58.0,30.06,SSW,206,0.0,-999.0,65,-99.99,,,0.00,weatherlink.com 1.10,2013-01-25 21:51:00,
2013-01-25 14:06:00,71.0,58.0,30.05,WSW,242,2.0,-999.0,63,-99.99,,,0.00,weatherlink.com 1.10,2013-01-25 22:06:00,
2013-01-25 14:21:00,71.5,57.0,30.05,South,172,1.0,-999.0,61,-99.99,,,0.00,weatherlink.com 1.10,2013-01-25 22:21:00,
2013-01-25 14:36:00,70.0,56.0,30.05,SE,131,2.0,-999.0,62,-99.99,,,0.00,weatherlink.com 1.10,2013-01-25 22:36:00,
2013-01-25 14:51:00,69.7,56.0,30.05,NE,41,0.0,-999.0,62,-99.99,,,0.00,weatherlink.com 1.10,2013-01-25 22:51:00,
2013-01-25 15:06:00,68.5,56.0,30.05,East,99,0.0,-999.0,64,-99.99,,,0.00,weatherlink.com 1.10,2013-01-25 23:06:00,
2013-01-25 15:21:00,66.4,55.0,30.04,ESE,118,0.0,-999.0,68,-99.99,,,0.00,weatherlink.com 1.10,2013-01-25 23:21:00,
2013-01-25 15:36:00,65.3,56.0,30.04,ENE,76,0.0,-999.0,72,-99.99,,,0.00,weatherlink.com 1.10,2013-01-25 23:36:00,
2013-01-25 15:51:00,67.4,58.0,30.02,SSW,212,0.0,-999.0,71,-99.99,,,0.00,weatherlink.com 1.10,2013-01-25 23:51:00,
2013-01-25 16:06:00,69.2,58.0,30.02,WSW,242,0.0,-999.0,67,-99.99,,,0.00,weatherlink.com 1.10,2013-01-26 00:06:00,
2013-01-25 16:21:00,67.7,57.0,30.02,SSW,194,1.0,-999.0,68,-99.99,,,0.00,weatherlink.com 1.10,2013-01-26 00:21:00,
2013-01-25 16:36:00,65.4,56.0,30.01,South,188,0.0,-999.0,72,-99.99,,,0.00,weatherlink.com 1.10,2013-01-26 00:36:00,
2013-01-25 16:51:00,63.4,55.0,30.01,South,188,0.0,-999.0,75,-99.99,,,0.00,weatherlink.com 1.10,2013-01-26 00:51:00,
2013-01-25 17:06:00,61.8,55.0,30.01,South,188,0.0,-999.0,78,-99.99,,,0.00,weatherlink.com 1.10,2013-01-26 01:06:00,
2013-01-25 17:21:00,60.6,55.0,30.01,South,188,0.0,-999.0,81,-99.99,,,0.00,weatherlink.com 1.10,2013-01-26 01:21:00,
2013-01-25 17:36:00,59.3,54.0,30.01,South,188,0.0,-999.0,83,-99.99,,,0.00,weatherlink.com 1.10,2013-01-26 01:36:00,
2013-01-25 17:51:00,58.2,54.0,30.01,South,188,0.0,-999.0,85,-99.99,,,0.00,weatherlink.com 1.10,2013-01-26 01:51:00,
2013-01-25 18:06:00,57.0,53.0,30.01,South,188,0.0,-999.0,87,-99.99,,,0.00,weatherlink.com 1.10,2013-01-26 02:06:00,
2013-01-25 18:21:00,56.1,53.0,30.02,South,188,0.0,-999.0,88,-99.99,,,0.00,weatherlink.com 1.10,2013-01-26 02:21:00,
2013-01-25 18:36:00,55.4,52.0,30.02,South,188,0.0,-999.0,89,-99.99,,,0.00,weatherlink.com 1.10,2013-01-26 02:36:00,
2013-01-25 18:51:00,54.9,52.0,30.03,South,188,0.0,-999.0,90,-99.99,,,0.00,weatherlink.com 1.10,2013-01-26 02:51:00,
2013-01-25 19:06:00,54.4,52.0,30.02,West,261,0.0,-999.0,91,-99.99,,,0.00,weatherlink.com 1.10,2013-01-26 03:06:00,
2013-01-25 19:21:00,54.2,52.0,30.02,West,261,0.0,-999.0,92,-99.99,,,0.00,weatherlink.com 1.10,2013-01-26 03:21:00,
2013-01-25 19:36:00,54.0,52.0,30.02,West,261,0.0,-999.0,93,-99.99,,,0.00,weatherlink.com 1.10,2013-01-26 03:36:00,
2013-01-25 19:51:00,53.7,52.0,30.02,West,261,0.0,-999.0,93,-99.99,,,0.00,weatherlink.com 1.10,2013-01-26 03:51:00,
2013-01-25 20:06:00,53.6,52.0,30.03,West,261,0.0,-999.0,93,-99.99,,,0.00,weatherlink.com 1.10,2013-01-26 04:06:00,
2013-01-25 20:21:00,53.4,52.0,30.02,West,261,0.0,-999.0,94,-99.99,,,0.00,weatherlink.com 1.10,2013-01-26 04:21:00,
2013-01-25 20:36:00,53.2,52.0,30.02,West,261,0.0,-999.0,94,-99.99,,,0.00,weatherlink.com 1.10,2013-01-26 04:36:00,
2013-01-25 20:51:00,53.0,51.0,30.02,West,261,0.0,-999.0,93,-99.99,,,0.00,weatherlink.com 1.10,2013-01-26 04:51:00,
2013-01-25 21:06:00,52.9,51.0,30.03,West,261,0.0,-999.0,94,-99.99,,,0.00,weatherlink.com 1.10,2013-01-26 05:06:00,
2013-01-25 21:21:00,52.7,51.0,30.03,West,261,0.0,-999.0,94,-99.99,,,0.00,weatherlink.com 1.10,2013-01-26 05:21:00,
2013-01-25 21:36:00,52.5,51.0,30.03,West,261,0.0,-999.0,94,-99.99,,,0.00,weatherlink.com 1.10,2013-01-26 05:36:00,
2013-01-25 21:51:00,52.2,51.0,30.03,West,261,0.0,-999.0,94,-99.99,,,0.00,weatherlink.com 1.10,2013-01-26 05:51:00,
2013-01-25 22:07:00,52.0,50.0,30.03,West,261,0.0,-999.0,94,-99.99,,,0.00,weatherlink.com 1.10,2013-01-26 06:07:00,
2013-01-25 22:21:00,51.8,50.0,30.03,West,261,0.0,-999.0,94,-99.99,,,0.00,weatherlink.com 1.10,2013-01-26 06:21:00,
2013-01-25 22:36:00,51.6,50.0,30.03,West,261,0.0,-999.0,95,-99.99,,,0.00,weatherlink.com 1.10,2013-01-26 06:36:00,
2013-01-25 22:51:00,51.4,50.0,30.04,West,261,0.0,-999.0,95,-99.99,,,0.00,weatherlink.com 1.10,2013-01-26 06:51:00,
2013-01-25 23:06:00,51.2,50.0,30.03,West,261,0.0,-999.0,95,-99.99,,,0.00,weatherlink.com 1.10,2013-01-26 07:06:00,
2013-01-25 23:21:00,50.8,50.0,30.03,West,261,0.0,-999.0,95,-99.99,,,0.00,weatherlink.com 1.10,2013-01-26 07:21:00,
2013-01-25 23:36:00,50.6,49.0,30.03,West,261,0.0,-999.0,95,-99.99,,,0.00,weatherlink.com 1.10,2013-01-26 07:36:00,
2013-01-25 23:51:00,50.4,49.0,30.02,West,261,0.0,-999.0,95,-99.99,,,0.00,weatherlink.com 1.10,2013-01-26 07:51:00,